Year,Month,Day,Hour,Minute,Value (Times are PST for temperature in C)
2007,11,13,00,00,7.40
2007,11,13,00,01,7.40
2007,11,13,00,02,7.40
2007,11,13,00,03,7.40
2007,11,13,00,04,7.40
2007,11,13,00,05,7.40
2007,11,13,00,06,7.50
2007,11,13,00,07,7.50
2007,11,13,00,08,7.50
2007,11,13,00,09,7.50
2007,11,13,00,10,7.50
2007,11,13,00,11,7.50
2007,11,13,00,12,7.50
2007,11,13,00,13,7.50
2007,11,13,00,14,7.50
2007,11,13,00,15,7.50
2007,11,13,00,16,7.50
2007,11,13,00,17,7.50
2007,11,13,00,18,7.50
2007,11,13,00,19,7.50
2007,11,13,00,20,7.60
2007,11,13,00,21,7.60
2007,11,13,00,22,7.70
2007,11,13,00,23,7.70
2007,11,13,00,24,7.70
2007,11,13,00,25,7.70
2007,11,13,00,26,7.70
2007,11,13,00,27,7.70
2007,11,13,00,28,7.60
2007,11,13,00,29,7.60
2007,11,13,00,30,7.60
2007,11,13,00,31,7.60
2007,11,13,00,32,7.60
2007,11,13,00,33,7.60
2007,11,13,00,34,7.60
2007,11,13,00,35,7.60
2007,11,13,00,36,7.60
2007,11,13,00,37,7.60
2007,11,13,00,38,7.60
2007,11,13,00,39,7.60
2007,11,13,00,40,7.60
2007,11,13,00,41,7.60
2007,11,13,00,42,7.60
2007,11,13,00,43,7.60
2007,11,13,00,44,7.60
2007,11,13,00,45,7.50
2007,11,13,00,46,7.50
2007,11,13,00,47,7.60
2007,11,13,00,48,7.60
2007,11,13,00,49,7.60
2007,11,13,00,50,7.60
2007,11,13,00,51,7.60
2007,11,13,00,52,7.60
2007,11,13,00,53,7.60
2007,11,13,00,54,7.60
2007,11,13,00,55,7.60
2007,11,13,00,56,7.60
2007,11,13,00,57,7.60
2007,11,13,00,58,7.60
2007,11,13,00,59,7.60
2007,11,13,01,00,7.60
2007,11,13,01,01,7.60
2007,11,13,01,02,7.60
2007,11,13,01,03,7.60
2007,11,13,01,04,7.60
2007,11,13,01,05,7.50
2007,11,13,01,06,7.50
2007,11,13,01,07,7.50
2007,11,13,01,08,7.50
2007,11,13,01,09,7.50
2007,11,13,01,10,7.50
2007,11,13,01,11,7.50
2007,11,13,01,12,7.50
2007,11,13,01,13,7.50
2007,11,13,01,14,7.50
2007,11,13,01,15,7.50
2007,11,13,01,16,7.50
2007,11,13,01,17,7.50
2007,11,13,01,18,7.50
2007,11,13,01,19,7.50
2007,11,13,01,20,7.40
2007,11,13,01,21,7.40
2007,11,13,01,22,7.40
2007,11,13,01,23,7.40
2007,11,13,01,24,7.40
2007,11,13,01,25,7.40
2007,11,13,01,26,7.40
2007,11,13,01,27,7.40
2007,11,13,01,28,7.40
2007,11,13,01,29,7.40
2007,11,13,01,30,7.40
2007,11,13,01,31,7.40
2007,11,13,01,32,7.40
2007,11,13,01,33,7.40
2007,11,13,01,34,7.40
2007,11,13,01,35,7.40
2007,11,13,01,36,7.40
2007,11,13,01,37,7.50
2007,11,13,01,38,7.50
2007,11,13,01,39,7.50
2007,11,13,01,40,7.50
2007,11,13,01,41,7.50
2007,11,13,01,42,7.50
2007,11,13,01,43,7.50
2007,11,13,01,44,7.50
2007,11,13,01,45,7.40
2007,11,13,01,46,7.40
2007,11,13,01,47,7.50
2007,11,13,01,48,7.50
2007,11,13,01,49,7.40
2007,11,13,01,50,7.40
2007,11,13,01,51,7.40
2007,11,13,01,52,7.40
2007,11,13,01,53,7.40
2007,11,13,01,54,7.40
2007,11,13,01,55,7.40
2007,11,13,01,56,7.40
2007,11,13,01,57,7.40
2007,11,13,01,58,7.30
2007,11,13,01,59,7.30
2007,11,13,02,00,7.30
2007,11,13,02,01,7.30
2007,11,13,02,02,7.30
2007,11,13,02,03,7.30
2007,11,13,02,04,7.30
2007,11,13,02,05,7.30
2007,11,13,02,06,7.30
2007,11,13,02,07,7.30
2007,11,13,02,08,7.20
2007,11,13,02,09,7.20
2007,11,13,02,10,7.20
2007,11,13,02,11,7.20
2007,11,13,02,12,7.20
2007,11,13,02,13,7.20
2007,11,13,02,14,7.20
2007,11,13,02,15,7.20
2007,11,13,02,16,7.20
2007,11,13,02,17,7.20
2007,11,13,02,18,7.20
2007,11,13,02,19,7.20
2007,11,13,02,20,7.20
2007,11,13,02,21,7.20
2007,11,13,02,22,7.20
2007,11,13,02,23,7.20
2007,11,13,02,24,7.20
2007,11,13,02,25,7.20
2007,11,13,02,26,7.20
2007,11,13,02,27,7.20
2007,11,13,02,28,7.20
2007,11,13,02,29,7.20
2007,11,13,02,30,7.20
2007,11,13,02,31,7.20
2007,11,13,02,32,7.20
2007,11,13,02,33,7.20
2007,11,13,02,34,7.20
2007,11,13,02,35,7.20
2007,11,13,02,36,7.20
2007,11,13,02,37,7.20
2007,11,13,02,38,7.20
2007,11,13,02,39,7.20
2007,11,13,02,40,7.20
2007,11,13,02,41,7.20
2007,11,13,02,42,7.20
2007,11,13,02,43,7.20
2007,11,13,02,44,7.10
2007,11,13,02,45,7.10
2007,11,13,02,46,7.10
2007,11,13,02,47,7.20
2007,11,13,02,48,7.20
2007,11,13,02,49,7.20
2007,11,13,02,50,7.20
2007,11,13,02,51,7.20
2007,11,13,02,52,7.20
2007,11,13,02,53,7.20
2007,11,13,02,54,7.20
2007,11,13,02,55,7.20
2007,11,13,02,56,7.20
2007,11,13,02,57,7.20
2007,11,13,02,58,7.20
2007,11,13,02,59,7.20
2007,11,13,03,00,7.20
2007,11,13,03,01,7.20
2007,11,13,03,02,7.20
2007,11,13,03,03,7.20
2007,11,13,03,04,7.20
2007,11,13,03,05,7.20
2007,11,13,03,06,7.20
2007,11,13,03,07,7.20
2007,11,13,03,08,7.20
2007,11,13,03,09,7.20
2007,11,13,03,10,7.30
2007,11,13,03,11,7.30
2007,11,13,03,12,7.30
2007,11,13,03,13,7.30
2007,11,13,03,14,7.30
2007,11,13,03,15,7.20
2007,11,13,03,16,7.20
2007,11,13,03,17,7.30
2007,11,13,03,18,7.30
2007,11,13,03,19,7.30
2007,11,13,03,20,7.30
2007,11,13,03,21,7.30
2007,11,13,03,22,7.30
2007,11,13,03,23,7.30
2007,11,13,03,24,7.30
2007,11,13,03,25,7.30
2007,11,13,03,26,7.30
2007,11,13,03,27,7.30
2007,11,13,03,28,7.30
2007,11,13,03,29,7.30
2007,11,13,03,30,7.30
2007,11,13,03,31,7.30
2007,11,13,03,32,7.30
2007,11,13,03,33,7.30
2007,11,13,03,34,7.30
2007,11,13,03,35,7.30
2007,11,13,03,36,7.30
2007,11,13,03,37,7.30
2007,11,13,03,38,7.30
2007,11,13,03,39,7.30
2007,11,13,03,40,7.30
2007,11,13,03,41,7.30
2007,11,13,03,42,7.30
2007,11,13,03,43,7.30
2007,11,13,03,44,7.30
2007,11,13,03,45,7.30
2007,11,13,03,46,7.30
2007,11,13,03,47,7.30
2007,11,13,03,48,7.30
2007,11,13,03,49,7.30
2007,11,13,03,50,7.30
2007,11,13,03,51,7.30
2007,11,13,03,52,7.20
2007,11,13,03,53,7.20
2007,11,13,03,54,7.20
2007,11,13,03,55,7.20
2007,11,13,03,56,7.20
2007,11,13,03,57,7.20
2007,11,13,03,58,7.20
2007,11,13,03,59,7.20
2007,11,13,04,00,7.20
2007,11,13,04,01,7.20
2007,11,13,04,02,7.10
2007,11,13,04,03,7.10
2007,11,13,04,04,7.10
2007,11,13,04,05,7.10
2007,11,13,04,06,7.10
2007,11,13,04,07,7.10
2007,11,13,04,08,7.10
2007,11,13,04,09,7.10
2007,11,13,04,10,7.10
2007,11,13,04,11,7.10
2007,11,13,04,12,7.10
2007,11,13,04,13,7.00
2007,11,13,04,14,7.00
2007,11,13,04,15,7.00
2007,11,13,04,16,7.00
2007,11,13,04,17,7.00
2007,11,13,04,18,6.90
2007,11,13,04,19,7.00
2007,11,13,04,20,7.00
2007,11,13,04,21,7.00
2007,11,13,04,22,7.10
2007,11,13,04,23,7.10
2007,11,13,04,24,7.00
2007,11,13,04,25,7.00
2007,11,13,04,26,7.00
2007,11,13,04,27,6.90
2007,11,13,04,28,6.90
2007,11,13,04,29,6.90
2007,11,13,04,30,6.90
2007,11,13,04,31,6.80
2007,11,13,04,32,6.80
2007,11,13,04,33,6.80
2007,11,13,04,34,6.80
2007,11,13,04,35,6.80
2007,11,13,04,36,6.80
2007,11,13,04,37,6.90
2007,11,13,04,38,6.90
2007,11,13,04,39,6.90
2007,11,13,04,40,6.90
2007,11,13,04,41,6.90
2007,11,13,04,42,6.90
2007,11,13,04,43,6.90
2007,11,13,04,44,6.90
2007,11,13,04,45,6.90
2007,11,13,04,46,6.90
2007,11,13,04,47,6.90
2007,11,13,04,48,6.90
2007,11,13,04,49,6.90
2007,11,13,04,50,6.90
2007,11,13,04,51,7.00
2007,11,13,04,52,7.00
2007,11,13,04,53,7.00
2007,11,13,04,54,6.90
2007,11,13,04,55,6.90
2007,11,13,04,56,6.90
2007,11,13,04,57,6.90
2007,11,13,04,58,6.90
2007,11,13,04,59,6.90
2007,11,13,05,00,6.90
2007,11,13,05,01,6.90
2007,11,13,05,02,6.90
2007,11,13,05,03,6.90
2007,11,13,05,04,6.90
2007,11,13,05,05,6.90
2007,11,13,05,06,6.80
2007,11,13,05,07,6.80
2007,11,13,05,08,6.80
2007,11,13,05,09,6.80
2007,11,13,05,10,6.80
2007,11,13,05,11,6.80
2007,11,13,05,12,6.80
2007,11,13,05,13,6.80
2007,11,13,05,14,6.80
2007,11,13,05,15,6.80
2007,11,13,05,16,6.80
2007,11,13,05,17,6.80
2007,11,13,05,18,6.80
2007,11,13,05,19,6.80
2007,11,13,05,20,6.80
2007,11,13,05,21,6.80
2007,11,13,05,22,6.80
2007,11,13,05,23,6.80
2007,11,13,05,24,6.80
2007,11,13,05,25,6.80
2007,11,13,05,26,6.80
2007,11,13,05,27,6.80
2007,11,13,05,28,6.90
2007,11,13,05,29,6.90
2007,11,13,05,30,6.90
2007,11,13,05,31,6.90
2007,11,13,05,32,6.90
2007,11,13,05,33,6.90
2007,11,13,05,34,6.80
2007,11,13,05,35,6.80
2007,11,13,05,36,6.80
2007,11,13,05,37,6.80
2007,11,13,05,38,6.80
2007,11,13,05,39,6.80
2007,11,13,05,40,6.80
2007,11,13,05,41,6.80
2007,11,13,05,42,6.80
2007,11,13,05,43,6.80
2007,11,13,05,44,6.80
2007,11,13,05,45,6.80
2007,11,13,05,46,6.80
2007,11,13,05,47,6.80
2007,11,13,05,48,6.80
2007,11,13,05,49,6.70
2007,11,13,05,50,6.70
2007,11,13,05,51,6.70
2007,11,13,05,52,6.70
2007,11,13,05,53,6.70
2007,11,13,05,54,6.70
2007,11,13,05,55,6.70
2007,11,13,05,56,6.70
2007,11,13,05,57,6.70
2007,11,13,05,58,6.70
2007,11,13,05,59,6.70
2007,11,13,06,00,6.70
2007,11,13,06,01,6.70
2007,11,13,06,02,6.70
2007,11,13,06,03,6.70
2007,11,13,06,04,6.70
2007,11,13,06,05,6.70
2007,11,13,06,06,6.70
2007,11,13,06,07,6.70
2007,11,13,06,08,6.70
2007,11,13,06,09,6.70
2007,11,13,06,10,6.70
2007,11,13,06,11,6.70
2007,11,13,06,12,6.70
2007,11,13,06,13,6.70
2007,11,13,06,14,6.60
2007,11,13,06,15,6.60
2007,11,13,06,16,6.60
2007,11,13,06,17,6.70
2007,11,13,06,18,6.70
2007,11,13,06,19,6.70
2007,11,13,06,20,6.70
2007,11,13,06,21,6.70
2007,11,13,06,22,6.60
2007,11,13,06,23,6.60
2007,11,13,06,24,6.60
2007,11,13,06,25,6.60
2007,11,13,06,26,6.60
2007,11,13,06,27,6.60
2007,11,13,06,28,6.70
2007,11,13,06,29,6.70
2007,11,13,06,30,6.70
2007,11,13,06,31,6.60
2007,11,13,06,32,6.60
2007,11,13,06,33,6.60
2007,11,13,06,34,6.60
2007,11,13,06,35,6.60
2007,11,13,06,36,6.60
2007,11,13,06,37,6.60
2007,11,13,06,38,6.60
2007,11,13,06,39,6.60
2007,11,13,06,40,6.60
2007,11,13,06,41,6.60
2007,11,13,06,42,6.60
2007,11,13,06,43,6.50
2007,11,13,06,44,6.50
2007,11,13,06,45,6.50
2007,11,13,06,46,6.50
2007,11,13,06,47,6.40
2007,11,13,06,48,6.40
2007,11,13,06,49,6.40
2007,11,13,06,50,6.40
2007,11,13,06,51,6.40
2007,11,13,06,52,6.40
2007,11,13,06,53,6.40
2007,11,13,06,54,6.40
2007,11,13,06,55,6.40
2007,11,13,06,56,6.40
2007,11,13,06,57,6.40
2007,11,13,06,58,6.40
2007,11,13,06,59,6.40
2007,11,13,07,00,6.40
2007,11,13,07,01,6.30
2007,11,13,07,02,6.30
2007,11,13,07,03,6.30
2007,11,13,07,04,6.30
2007,11,13,07,05,6.30
2007,11,13,07,06,6.30
2007,11,13,07,07,6.30
2007,11,13,07,08,6.30
2007,11,13,07,09,6.30
2007,11,13,07,10,6.30
2007,11,13,07,11,6.30
2007,11,13,07,12,6.30
2007,11,13,07,13,6.30
2007,11,13,07,14,6.30
2007,11,13,07,15,6.40
2007,11,13,07,16,6.40
2007,11,13,07,17,6.40
2007,11,13,07,18,6.40
2007,11,13,07,19,6.40
2007,11,13,07,20,6.40
2007,11,13,07,21,6.40
2007,11,13,07,22,6.40
2007,11,13,07,23,6.40
2007,11,13,07,24,6.40
2007,11,13,07,25,6.40
2007,11,13,07,26,6.40
2007,11,13,07,27,6.40
2007,11,13,07,28,6.50
2007,11,13,07,29,6.50
2007,11,13,07,30,6.40
2007,11,13,07,31,6.40
2007,11,13,07,32,6.40
2007,11,13,07,33,6.40
2007,11,13,07,34,6.40
2007,11,13,07,35,6.40
2007,11,13,07,36,6.40
2007,11,13,07,37,6.40
2007,11,13,07,38,6.40
2007,11,13,07,39,6.40
2007,11,13,07,40,6.30
2007,11,13,07,41,6.30
2007,11,13,07,42,6.30
2007,11,13,07,43,6.40
2007,11,13,07,44,6.40
2007,11,13,07,45,6.40
2007,11,13,07,46,6.50
2007,11,13,07,47,6.50
2007,11,13,07,48,6.50
2007,11,13,07,49,6.50
2007,11,13,07,50,6.50
2007,11,13,07,51,6.50
2007,11,13,07,52,6.50
2007,11,13,07,53,6.50
2007,11,13,07,54,6.50
2007,11,13,07,55,6.60
2007,11,13,07,56,6.60
2007,11,13,07,57,6.60
2007,11,13,07,58,6.70
2007,11,13,07,59,6.60
2007,11,13,08,00,6.60
2007,11,13,08,01,6.70
2007,11,13,08,02,6.70
2007,11,13,08,03,6.70
2007,11,13,08,04,6.70
2007,11,13,08,05,6.70
2007,11,13,08,06,6.70
2007,11,13,08,07,6.70
2007,11,13,08,08,6.70
2007,11,13,08,09,6.70
2007,11,13,08,10,6.70
2007,11,13,08,11,6.70
2007,11,13,08,12,6.80
2007,11,13,08,13,6.80
2007,11,13,08,14,6.80
2007,11,13,08,15,6.80
2007,11,13,08,16,6.80
2007,11,13,08,17,6.80
2007,11,13,08,18,6.90
2007,11,13,08,19,6.90
2007,11,13,08,20,6.90
2007,11,13,08,21,6.90
2007,11,13,08,22,7.00
2007,11,13,08,23,7.00
2007,11,13,08,24,7.00
2007,11,13,08,25,7.10
2007,11,13,08,26,7.10
2007,11,13,08,27,7.10
2007,11,13,08,28,7.10
2007,11,13,08,29,7.10
2007,11,13,08,30,7.20
2007,11,13,08,31,7.20
2007,11,13,08,32,7.20
2007,11,13,08,33,7.20
2007,11,13,08,34,7.20
2007,11,13,08,35,7.20
2007,11,13,08,36,7.30
2007,11,13,08,37,7.30
2007,11,13,08,38,7.30
2007,11,13,08,39,7.30
2007,11,13,08,40,7.40
2007,11,13,08,41,7.40
2007,11,13,08,42,7.40
2007,11,13,08,43,7.40
2007,11,13,08,44,7.40
2007,11,13,08,45,7.40
2007,11,13,08,46,7.40
2007,11,13,08,47,7.40
2007,11,13,08,48,7.50
2007,11,13,08,49,7.50
2007,11,13,08,50,7.60
2007,11,13,08,51,7.60
2007,11,13,08,52,7.60
2007,11,13,08,53,7.60
2007,11,13,08,54,7.60
2007,11,13,08,55,7.70
2007,11,13,08,56,7.70
2007,11,13,08,57,7.70
2007,11,13,08,58,7.80
2007,11,13,08,59,7.80
2007,11,13,09,00,7.80
2007,11,13,09,01,7.90
2007,11,13,09,02,7.90
2007,11,13,09,03,8.00
2007,11,13,09,04,8.00
2007,11,13,09,05,8.10
2007,11,13,09,06,8.10
2007,11,13,09,07,8.20
2007,11,13,09,08,8.20
2007,11,13,09,09,8.20
2007,11,13,09,10,8.30
2007,11,13,09,11,8.30
2007,11,13,09,12,8.40
2007,11,13,09,13,8.40
2007,11,13,09,14,8.40
2007,11,13,09,15,8.40
2007,11,13,09,16,8.40
2007,11,13,09,17,8.40
2007,11,13,09,18,8.40
2007,11,13,09,19,8.40
2007,11,13,09,20,8.40
2007,11,13,09,21,8.40
2007,11,13,09,22,8.40
2007,11,13,09,23,8.50
2007,11,13,09,24,8.50
2007,11,13,09,25,8.50
2007,11,13,09,26,8.50
2007,11,13,09,27,8.50
2007,11,13,09,28,8.50
2007,11,13,09,29,8.50
2007,11,13,09,30,8.50
2007,11,13,09,31,8.40
2007,11,13,09,32,8.40
2007,11,13,09,33,8.40
2007,11,13,09,34,8.30
2007,11,13,09,35,8.30
2007,11,13,09,36,8.30
2007,11,13,09,37,8.30
2007,11,13,09,38,8.30
2007,11,13,09,39,8.20
2007,11,13,09,40,8.20
2007,11,13,09,41,8.20
2007,11,13,09,42,8.20
2007,11,13,09,43,8.20
2007,11,13,09,44,8.20
2007,11,13,09,45,8.20
2007,11,13,09,46,8.20
2007,11,13,09,47,8.20
2007,11,13,09,48,8.20
2007,11,13,09,49,8.20
2007,11,13,09,50,8.20
2007,11,13,09,51,8.20
2007,11,13,09,52,8.20
2007,11,13,09,53,8.20
2007,11,13,09,54,8.20
2007,11,13,09,55,8.20
2007,11,13,09,56,8.20
2007,11,13,09,57,8.20
2007,11,13,09,58,8.20
2007,11,13,09,59,8.30
2007,11,13,10,00,8.30
2007,11,13,10,01,8.30
2007,11,13,10,02,8.30
2007,11,13,10,03,8.40
2007,11,13,10,04,8.40
2007,11,13,10,05,8.50
2007,11,13,10,06,8.60
2007,11,13,10,07,8.60
2007,11,13,10,08,8.60
2007,11,13,10,09,8.60
2007,11,13,10,10,8.70
2007,11,13,10,11,8.70
2007,11,13,10,12,8.70
2007,11,13,10,13,8.70
2007,11,13,10,14,8.70
2007,11,13,10,15,8.70
2007,11,13,10,16,8.70
2007,11,13,10,17,8.70
2007,11,13,10,18,8.70
2007,11,13,10,19,8.70
2007,11,13,10,20,8.70
2007,11,13,10,21,8.70
2007,11,13,10,22,8.70
2007,11,13,10,23,8.70
2007,11,13,10,24,8.70
2007,11,13,10,25,8.70
2007,11,13,10,26,8.70
2007,11,13,10,27,8.70
2007,11,13,10,28,8.70
2007,11,13,10,29,8.70
2007,11,13,10,30,8.70
2007,11,13,10,31,8.70
2007,11,13,10,32,8.70
2007,11,13,10,33,8.70
2007,11,13,10,34,8.70
2007,11,13,10,35,8.70
2007,11,13,10,36,8.70
2007,11,13,10,37,8.70
2007,11,13,10,38,8.70
2007,11,13,10,39,8.80
2007,11,13,10,40,8.80
2007,11,13,10,41,8.80
2007,11,13,10,42,8.80
2007,11,13,10,43,8.80
2007,11,13,10,44,8.90
2007,11,13,10,45,8.90
2007,11,13,10,46,8.90
2007,11,13,10,47,8.90
2007,11,13,10,48,8.90
2007,11,13,10,49,8.90
2007,11,13,10,50,8.90
2007,11,13,10,51,8.90
2007,11,13,10,52,8.90
2007,11,13,10,53,8.90
2007,11,13,10,54,8.90
2007,11,13,10,55,8.90
2007,11,13,10,56,8.90
2007,11,13,10,57,8.90
2007,11,13,10,58,8.90
2007,11,13,10,59,8.90
2007,11,13,11,00,8.90
2007,11,13,11,01,8.90
2007,11,13,11,02,8.90
2007,11,13,11,03,8.90
2007,11,13,11,04,8.90
2007,11,13,11,05,8.90
2007,11,13,11,06,8.90
2007,11,13,11,07,8.90
2007,11,13,11,08,8.90
2007,11,13,11,09,8.90
2007,11,13,11,10,8.90
2007,11,13,11,11,8.90
2007,11,13,11,12,8.90
2007,11,13,11,13,8.90
2007,11,13,11,14,8.90
2007,11,13,11,15,8.90
2007,11,13,11,16,8.90
2007,11,13,11,17,8.90
2007,11,13,11,18,9.00
2007,11,13,11,19,9.00
2007,11,13,11,20,9.00
2007,11,13,11,21,9.10
2007,11,13,11,22,9.10
2007,11,13,11,23,9.20
2007,11,13,11,24,9.20
2007,11,13,11,25,9.20
2007,11,13,11,26,9.30
2007,11,13,11,27,9.40
2007,11,13,11,28,9.50
2007,11,13,11,29,9.50
2007,11,13,11,30,9.60
2007,11,13,11,31,9.60
2007,11,13,11,32,9.60
2007,11,13,11,33,9.70
2007,11,13,11,34,9.70
2007,11,13,11,35,9.70
2007,11,13,11,36,9.70
2007,11,13,11,37,9.70
2007,11,13,11,38,9.60
2007,11,13,11,39,9.60
2007,11,13,11,40,9.60
2007,11,13,11,41,9.60
2007,11,13,11,42,9.60
2007,11,13,11,43,9.60
2007,11,13,11,44,9.60
2007,11,13,11,45,9.50
2007,11,13,11,46,9.50
2007,11,13,11,47,9.50
2007,11,13,11,48,9.50
2007,11,13,11,49,9.50
2007,11,13,11,50,9.50
2007,11,13,11,51,9.50
2007,11,13,11,52,9.50
2007,11,13,11,53,9.50
2007,11,13,11,54,9.40
2007,11,13,11,55,9.40
2007,11,13,11,56,9.40
2007,11,13,11,57,9.40
2007,11,13,11,58,9.40
2007,11,13,11,59,9.40
2007,11,13,12,00,9.40
2007,11,13,12,01,9.40
2007,11,13,12,02,9.40
2007,11,13,12,03,9.40
2007,11,13,12,04,9.40
2007,11,13,12,05,9.40
2007,11,13,12,06,9.40
2007,11,13,12,07,9.40
2007,11,13,12,08,9.40
2007,11,13,12,09,9.40
2007,11,13,12,10,9.40
2007,11,13,12,11,9.40
2007,11,13,12,12,9.50
2007,11,13,12,13,9.50
2007,11,13,12,14,9.50
2007,11,13,12,15,9.50
2007,11,13,12,16,9.50
2007,11,13,12,17,9.50
2007,11,13,12,18,9.50
2007,11,13,12,19,9.50
2007,11,13,12,20,9.60
2007,11,13,12,21,9.60
2007,11,13,12,22,9.60
2007,11,13,12,23,9.60
2007,11,13,12,24,9.60
2007,11,13,12,25,9.60
2007,11,13,12,26,9.60
2007,11,13,12,27,9.60
2007,11,13,12,28,9.60
2007,11,13,12,29,9.60
2007,11,13,12,30,9.60
2007,11,13,12,31,9.60
2007,11,13,12,32,9.60
2007,11,13,12,33,9.60
2007,11,13,12,34,9.60
2007,11,13,12,35,9.60
2007,11,13,12,36,9.60
2007,11,13,12,37,9.60
2007,11,13,12,38,9.60
2007,11,13,12,39,9.60
2007,11,13,12,40,9.60
2007,11,13,12,41,9.60
2007,11,13,12,42,9.70
2007,11,13,12,43,9.70
2007,11,13,12,44,9.70
2007,11,13,12,45,9.70
2007,11,13,12,46,9.70
2007,11,13,12,47,9.70
2007,11,13,12,48,9.70
2007,11,13,12,49,9.70
2007,11,13,12,50,9.70
2007,11,13,12,51,9.70
2007,11,13,12,52,9.70
2007,11,13,12,53,9.60
2007,11,13,12,54,9.60
2007,11,13,12,55,9.60
2007,11,13,12,56,9.60
2007,11,13,12,57,9.50
2007,11,13,12,58,9.50
2007,11,13,12,59,9.50
2007,11,13,13,00,9.40
2007,11,13,13,01,9.50
2007,11,13,13,02,9.50
2007,11,13,13,03,9.60
2007,11,13,13,04,9.60
2007,11,13,13,05,9.60
2007,11,13,13,06,9.60
2007,11,13,13,07,9.60
2007,11,13,13,08,9.70
2007,11,13,13,09,9.70
2007,11,13,13,10,9.80
2007,11,13,13,11,9.80
2007,11,13,13,12,9.80
2007,11,13,13,13,9.90
2007,11,13,13,14,9.90
2007,11,13,13,15,10.00
2007,11,13,13,16,10.00
2007,11,13,13,17,10.10
2007,11,13,13,18,10.10
2007,11,13,13,19,10.10
2007,11,13,13,20,10.20
2007,11,13,13,21,10.20
2007,11,13,13,22,10.20
2007,11,13,13,23,10.30
2007,11,13,13,24,10.30
2007,11,13,13,25,10.30
2007,11,13,13,26,10.30
2007,11,13,13,27,10.30
2007,11,13,13,28,10.40
2007,11,13,13,29,10.40
2007,11,13,13,30,10.40
2007,11,13,13,31,10.40
2007,11,13,13,32,10.40
2007,11,13,13,33,10.50
2007,11,13,13,34,10.50
2007,11,13,13,35,10.50
2007,11,13,13,36,10.50
2007,11,13,13,37,10.40
2007,11,13,13,38,10.40
2007,11,13,13,39,10.40
2007,11,13,13,40,10.40
2007,11,13,13,41,10.40
2007,11,13,13,42,10.40
2007,11,13,13,43,10.40
2007,11,13,13,44,10.30
2007,11,13,13,45,10.30
2007,11,13,13,46,10.30
2007,11,13,13,47,10.30
2007,11,13,13,48,10.30
2007,11,13,13,49,10.30
2007,11,13,13,50,10.40
2007,11,13,13,51,10.40
2007,11,13,13,52,10.40
2007,11,13,13,53,10.40
2007,11,13,13,54,10.40
2007,11,13,13,55,10.40
2007,11,13,13,56,10.30
2007,11,13,13,57,10.40
2007,11,13,13,58,10.40
2007,11,13,13,59,10.40
2007,11,13,14,00,10.30
2007,11,13,14,01,10.30
2007,11,13,14,02,10.40
2007,11,13,14,03,10.40
2007,11,13,14,04,10.50
2007,11,13,14,05,10.50
2007,11,13,14,06,10.60
2007,11,13,14,07,10.70
2007,11,13,14,08,10.70
2007,11,13,14,09,10.70
2007,11,13,14,10,10.70
2007,11,13,14,11,10.70
2007,11,13,14,12,10.70
2007,11,13,14,13,10.70
2007,11,13,14,14,10.70
2007,11,13,14,15,10.70
2007,11,13,14,16,10.70
2007,11,13,14,17,10.70
2007,11,13,14,18,10.80
2007,11,13,14,19,10.80
2007,11,13,14,20,10.80
2007,11,13,14,21,10.80
2007,11,13,14,22,10.80
2007,11,13,14,23,10.80
2007,11,13,14,24,10.80
2007,11,13,14,25,10.80
2007,11,13,14,26,10.80
2007,11,13,14,27,10.70
2007,11,13,14,28,10.70
2007,11,13,14,29,10.60
2007,11,13,14,30,10.60
2007,11,13,14,31,10.60
2007,11,13,14,32,10.60
2007,11,13,14,33,10.70
2007,11,13,14,34,10.70
2007,11,13,14,35,10.70
2007,11,13,14,36,10.70
2007,11,13,14,37,10.70
2007,11,13,14,38,10.70
2007,11,13,14,39,10.70
2007,11,13,14,40,10.70
2007,11,13,14,41,10.60
2007,11,13,14,42,10.60
2007,11,13,14,43,10.50
2007,11,13,14,44,10.50
2007,11,13,14,45,10.50
2007,11,13,14,46,10.50
2007,11,13,14,47,10.50
2007,11,13,14,48,10.50
2007,11,13,14,49,10.40
2007,11,13,14,50,10.40
2007,11,13,14,51,10.30
2007,11,13,14,52,10.30
2007,11,13,14,53,10.30
2007,11,13,14,54,10.30
2007,11,13,14,55,10.30
2007,11,13,14,56,10.30
2007,11,13,14,57,10.30
2007,11,13,14,58,10.30
2007,11,13,14,59,10.30
2007,11,13,15,00,10.30
2007,11,13,15,01,10.30
2007,11,13,15,02,10.30
2007,11,13,15,03,10.20
2007,11,13,15,04,10.20
2007,11,13,15,05,10.20
2007,11,13,15,06,10.10
2007,11,13,15,07,10.10
2007,11,13,15,08,10.00
2007,11,13,15,09,9.90
2007,11,13,15,10,9.80
2007,11,13,15,11,9.80
2007,11,13,15,12,9.70
2007,11,13,15,13,9.70
2007,11,13,15,14,9.70
2007,11,13,15,15,9.70
2007,11,13,15,16,9.60
2007,11,13,15,17,9.60
2007,11,13,15,18,9.50
2007,11,13,15,19,9.50
2007,11,13,15,20,9.40
2007,11,13,15,21,9.30
2007,11,13,15,22,9.20
2007,11,13,15,23,9.20
2007,11,13,15,24,9.10
2007,11,13,15,25,9.00
2007,11,13,15,26,8.90
2007,11,13,15,27,8.80
2007,11,13,15,28,8.80
2007,11,13,15,29,8.70
2007,11,13,15,30,8.70
2007,11,13,15,31,8.70
2007,11,13,15,32,8.70
2007,11,13,15,33,8.60
2007,11,13,15,34,8.60
2007,11,13,15,35,8.50
2007,11,13,15,36,8.40
2007,11,13,15,37,8.40
2007,11,13,15,38,8.30
2007,11,13,15,39,8.20
2007,11,13,15,40,8.20
2007,11,13,15,41,8.20
2007,11,13,15,42,8.10
2007,11,13,15,43,8.10
2007,11,13,15,44,8.10
2007,11,13,15,45,8.00
2007,11,13,15,46,8.00
2007,11,13,15,47,7.90
2007,11,13,15,48,7.90
2007,11,13,15,49,7.90
2007,11,13,15,50,7.80
2007,11,13,15,51,7.80
2007,11,13,15,52,7.80
2007,11,13,15,53,7.80
2007,11,13,15,54,7.80
2007,11,13,15,55,7.70
2007,11,13,15,56,7.70
2007,11,13,15,57,7.70
2007,11,13,15,58,7.70
2007,11,13,15,59,7.60
2007,11,13,16,00,7.60
2007,11,13,16,01,7.60
2007,11,13,16,02,7.50
2007,11,13,16,03,7.50
2007,11,13,16,04,7.40
2007,11,13,16,05,7.40
2007,11,13,16,06,7.40
2007,11,13,16,07,7.30
2007,11,13,16,08,7.30
2007,11,13,16,09,7.20
2007,11,13,16,10,7.20
2007,11,13,16,11,7.20
2007,11,13,16,12,7.20
2007,11,13,16,13,7.20
2007,11,13,16,14,7.10
2007,11,13,16,15,7.10
2007,11,13,16,16,7.10
2007,11,13,16,17,7.10
2007,11,13,16,18,7.10
2007,11,13,16,19,7.10
2007,11,13,16,20,7.00
2007,11,13,16,21,7.00
2007,11,13,16,22,7.00
2007,11,13,16,23,6.90
2007,11,13,16,24,6.90
2007,11,13,16,25,6.90
2007,11,13,16,26,6.90
2007,11,13,16,27,6.80
2007,11,13,16,28,6.80
2007,11,13,16,29,6.80
2007,11,13,16,30,6.80
2007,11,13,16,31,6.80
2007,11,13,16,32,6.70
2007,11,13,16,33,6.70
2007,11,13,16,34,6.70
2007,11,13,16,35,6.70
2007,11,13,16,36,6.60
2007,11,13,16,37,6.60
2007,11,13,16,38,6.60
2007,11,13,16,39,6.50
2007,11,13,16,40,6.50
2007,11,13,16,41,6.50
2007,11,13,16,42,6.40
2007,11,13,16,43,6.40
2007,11,13,16,44,6.40
2007,11,13,16,45,6.40
2007,11,13,16,46,6.40
2007,11,13,16,47,6.40
2007,11,13,16,48,6.40
2007,11,13,16,49,6.30
2007,11,13,16,50,6.30
2007,11,13,16,51,6.30
2007,11,13,16,52,6.30
2007,11,13,16,53,6.30
2007,11,13,16,54,6.30
2007,11,13,16,55,6.20
2007,11,13,16,56,6.20
2007,11,13,16,57,6.20
2007,11,13,16,58,6.20
2007,11,13,16,59,6.20
2007,11,13,17,00,6.10
2007,11,13,17,01,6.10
2007,11,13,17,02,6.10
2007,11,13,17,03,6.10
2007,11,13,17,04,6.10
2007,11,13,17,05,6.10
2007,11,13,17,06,6.00
2007,11,13,17,07,6.00
2007,11,13,17,08,6.00
2007,11,13,17,09,6.00
2007,11,13,17,10,5.90
2007,11,13,17,11,5.90
2007,11,13,17,12,5.90
2007,11,13,17,13,5.80
2007,11,13,17,14,5.80
2007,11,13,17,15,5.80
2007,11,13,17,16,5.80
2007,11,13,17,17,5.70
2007,11,13,17,18,5.70
2007,11,13,17,19,5.70
2007,11,13,17,20,5.70
2007,11,13,17,21,5.70
2007,11,13,17,22,5.70
2007,11,13,17,23,5.70
2007,11,13,17,24,5.70
2007,11,13,17,25,5.70
2007,11,13,17,26,5.70
2007,11,13,17,27,5.70
2007,11,13,17,28,5.70
2007,11,13,17,29,5.70
2007,11,13,17,30,5.70
2007,11,13,17,31,5.70
2007,11,13,17,32,5.70
2007,11,13,17,33,5.60
2007,11,13,17,34,5.60
2007,11,13,17,35,5.60
2007,11,13,17,36,5.60
2007,11,13,17,37,5.60
2007,11,13,17,38,5.60
2007,11,13,17,39,5.60
2007,11,13,17,40,5.60
2007,11,13,17,41,5.60
2007,11,13,17,42,5.60
2007,11,13,17,43,5.50
2007,11,13,17,44,5.50
2007,11,13,17,45,5.50
2007,11,13,17,46,5.50
2007,11,13,17,47,5.50
2007,11,13,17,48,5.50
2007,11,13,17,49,5.50
2007,11,13,17,50,5.50
2007,11,13,17,51,5.50
2007,11,13,17,52,5.50
2007,11,13,17,53,5.50
2007,11,13,17,54,5.50
2007,11,13,17,55,5.60
2007,11,13,17,56,5.60
2007,11,13,17,57,5.60
2007,11,13,17,58,5.60
2007,11,13,17,59,5.60
2007,11,13,18,00,5.60
2007,11,13,18,01,5.60